Regional Weather Roundup
Issued by NWS

Home | Current Version | Previous Version | Text Only | Print | Product List | Glossary Off
Versions: 1 2 3 4 5 6 7 8 9 10 11 12 13 14 15 16 17 18 19 20 21 22 23 24 25 26 27 28 29 30 31 32 33 34 35 36 37 38 39 40 41 42 43 44 45 46 47 48 49 50

000
ASUS43 KDMX 221201
RWRIA

WEATHER ROUNDUP FOR IOWA
NATIONAL WEATHER SERVICE DES MOINES IA
700 AM CDT FRI SEP 22 2017

NOTE: "FAIR" INDICATES FEW OR NO CLOUDS BELOW 12,000 FEET WITH NO
SIGNIFICANT WEATHER AND/OR OBSTRUCTIONS TO VISIBILITY.

* - THESE STATIONS ARE NOT NWS STATIONS...THUS NOT UNDER NWS
QUALITY CONTROL.  THEY ALSO DO NOT REPORT WEATHER SUCH
AS PRECIPITATION OR FOG.

IAZ001>003-012>014-020>022-031>034-043>046-221300-
   NORTHWEST IOWA

CITY           SKY/WX    TMP DP  RH WIND       PRES   REMARKS
CARROLL *      PTCLDY    77  72  83 S14       29.85S
CHEROKEE *     CLEAR     74  72  91 S14       29.81S
DENISON *      PTCLDY    75  70  83 S14G22    29.85S
LE MARS *      CLEAR     75  72  88 S18G25    29.76S
ORANGE CITY *  CLEAR     75  72  88 S14       29.79R
SHELDON *      CLEAR     75  72  88 S10G16    29.78R
SIOUX CITY     CLEAR     75  72  90 S13       29.77S
6HR MIN TEMP:  75; 6HR MAX TEMP:  78;

SPENCER        CLEAR     74  71  91 S12       29.81S
6HR MIN TEMP:  74; 6HR MAX TEMP:  76;

STORM LAKE *   CLEAR     75  70  83 S16G23    29.83S
$$

IAZ055>058-069>071-079>083-090>094-221300-
   SOUTHWEST IOWA

CITY           SKY/WX    TMP DP  RH WIND       PRES   REMARKS
ATLANTIC *     CLEAR     75  70  83 S10       29.88R
AUDUBON *      CLEAR     73  70  88 S8        29.88F
CLARINDA *     CLEAR     73  70  88 S9        29.92R
COUNCIL BLFS * CLEAR     75  73  94 S12       29.85S
CRESTON *      PTCLDY    73  70  88 S10G18    29.94S
HARLAN  *      PTCLDY    77  70  78 S12G20    29.89S
LAMONI         PTCLDY    72  69  90 S9        29.96R
6HR MIN TEMP:  72; 6HR MAX TEMP:  77;

RED OAK *      PTCLDY    75  70  83 S9        29.88R
SHENANDOAH *   CLEAR     75  70  83 S7        29.88R
$$

IAZ047>049-059>061-072>074-084-221300-
   CENTRAL IOWA

CITY           SKY/WX    TMP DP  RH WIND       PRES   REMARKS
AMES           CLEAR     71  70  96 SE13      29.91R
6HR MIN TEMP:  70; 6HR MAX TEMP:  74;

ANKENY *       CLEAR     72  70  94 S8        29.92S
BOONE *        CLEAR     73  70  88 S8        29.90R
CHARITON *     CLEAR     72  68  88 S10       29.95R
DES MOINES     PTCLDY    74  69  85 SE9       29.91R
6HR MIN TEMP:  74; 6HR MAX TEMP:  79;

GRINNELL*      CLEAR     71  67  86 S9        29.97R
KNOXVILLE *    CLEAR     72  68  88 S7G13     29.94R
MARSHALLTOWN   CLEAR     72  69  90 S10       29.93R
6HR MIN TEMP:  72; 6HR MAX TEMP:  76;

NEWTON *       CLEAR     72  68  88 S9        29.95S
PELLA *        CLEAR     72  67  83 SE7       29.96S
PERRY *          N/A     76  72  86 S8G16     29.89R
$$

IAZ004>006-015-016-023>025-035-036-221300-
   NORTH CENTRAL IOWA

CITY           SKY/WX    TMP DP  RH WIND       PRES   REMARKS
ALGONA *       CLOUDY    75  73  94 S12       29.86R
CLARION *      CLEAR     73  72  94 S14       29.89R
ESTHERVILLE    CLEAR     71  71 100 S10       29.82S
6HR MIN TEMP:  71; 6HR MAX TEMP:  75;

FORT DODGE *   PTCLDY    75  70  84 S10       29.87S
MASON CITY     CLEAR     71  68  90 S12       29.91R
6HR MIN TEMP:  70; 6HR MAX TEMP:  73;

FOREST CITY *    N/A     72  68  88 S8        29.88S
WEBSTER CITY * CLEAR     72  70  94 SE12      29.87S
IOWA FALLS *     N/A     72  69  88 SE13      29.93R
$$

IAZ007>011-017>019-026>030-037>042-050>054-066-221300-
   NORTHEAST IOWA

CITY           SKY/WX    TMP DP  RH WIND       PRES   REMARKS
CEDAR RAPIDS   CLEAR     71  68  90 S7        29.98R
6HR MIN TEMP:  71; 6HR MAX TEMP:  75;

CHARLES CITY * PTCLDY    73  72  94 S10G17    29.93S
CLINTON *      CLEAR    N/A N/A N/A SE7       30.03R
DECORAH *      CLEAR     73  68  83 S8G15     29.95S
DUBUQUE        CLEAR     69  67  93 S9        30.01R
6HR MIN TEMP:  69; 6HR MAX TEMP:  73;

MONTICELLO *   CLEAR     68  66  94 S6        29.99S
OELWEIN *      CLEAR     73  70  88 S10       29.97S
WATERLOO       CLEAR     72  68  87 S13       29.93S
6HR MIN TEMP:  72; 6HR MAX TEMP:  75;

$$

IAZ064-065-067-068-078-221300-
   EAST CENTRAL IOWA

CITY           SKY/WX    TMP DP  RH WIND       PRES   REMARKS
DAVENPORT      CLEAR     71  67  87 S7        30.04R
6HR MIN TEMP:  70; 6HR MAX TEMP:  75;

IOWA CITY      CLEAR     70  67  90 SE5       30.00R
6HR MIN TEMP:  70; 6HR MAX TEMP:  74;

MUSCATINE *    FOG       64  64 100 CALM      30.01S VSB<1/4
QUAD CITIES    CLEAR     72  67  84 SE3       30.01S
6HR MIN TEMP:  72; 6HR MAX TEMP:  76;

$$

IAZ062-063-075>077-085>089-095>099-221300-
   SOUTHEAST IOWA

CITY           SKY/WX    TMP DP  RH WIND       PRES   REMARKS
BURLINGTON     CLEAR     69  68  96 S5        30.02R
6HR MIN TEMP:  69; 6HR MAX TEMP:  78;

FAIRFIELD *    CLEAR     72  66  83 S7        29.99R
FORT MADISON * CLEAR     72  68  88 S5        30.03R
KEOKUK *       CLEAR     75  68  78 S7        30.01S
OSKALOOSA *      N/A     70  67  91 S6        29.98R
OTTUMWA        CLEAR     73  68  84 S9        29.97S
6HR MIN TEMP:  73; 6HR MAX TEMP:  77;

WASHINGTON *   CLEAR     70  70 100 S5        30.01R
$$

ABBREVIATIONS USED IN REMARKS
   TC - TEMPERATURES IN CELSIUS
  WCI - WIND CHILL INDEX
   HX - HEAT INDEX
  VSB - VISIBILITY
$$





USA.gov is the U.S. government's official web portal to all federal, state and local government web resources and services.